TimeEDT,TemperatureF,Dew PointF,Humidity,Sea Level PressureIn,VisibilityMPH,Wind Direction,Wind SpeedMPH,Gust SpeedMPH,PrecipitationIn,Events,Conditions,WindDirDegrees,DateUTC
12:03 AM,51.8,48.2,88,29.54,2.0,Variable,6.9,18.4,0.15,Rain,Rain,0,2012-10-11 04:03:00
12:11 AM,51.8,48.2,88,29.54,4.0,West,6.9,-,0.17,Rain,Rain,280,2012-10-11 04:11:00
12:54 AM,50.0,48.0,93,29.55,10.0,Variable,5.8,-,0.31,Rain,Light Rain,0,2012-10-11 04:54:00
1:54 AM,48.9,45.0,86,29.57,6.0,West,6.9,16.1,0.05,Rain,Light Rain,270,2012-10-11 05:54:00
2:54 AM,46.9,44.1,90,29.55,6.0,WSW,3.5,-,0.04,Rain,Light Rain,250,2012-10-11 06:54:00
3:27 AM,46.4,44.6,93,29.53,10.0,SW,3.5,-,0.02,Rain,Light Rain,230,2012-10-11 07:27:00
3:54 AM,46.0,45.0,96,29.54,10.0,SW,3.5,-,0.02,Rain,Light Rain,220,2012-10-11 07:54:00
4:33 AM,46.4,42.8,87,29.51,10.0,WSW,6.9,-,0.00,,Overcast,240,2012-10-11 08:33:00
4:54 AM,45.0,43.0,93,29.53,10.0,WSW,9.2,-,0.00,,Mostly Cloudy,240,2012-10-11 08:54:00
5:03 AM,44.6,42.8,93,29.51,10.0,WSW,9.2,-,N/A,,Mostly Cloudy,250,2012-10-11 09:03:00
5:12 AM,44.6,42.8,93,29.50,10.0,WSW,10.4,-,N/A,,Mostly Cloudy,250,2012-10-11 09:12:00
5:43 AM,42.8,39.2,87,29.53,6.0,NW,15.0,26.5,0.02,Rain,Rain,320,2012-10-11 09:43:00
5:54 AM,43.0,39.0,86,29.57,8.0,WNW,11.5,20.7,0.02,Rain,Light Rain,300,2012-10-11 09:54:00
6:02 AM,42.8,39.2,87,29.54,7.0,NW,11.5,20.7,N/A,Rain,Light Rain,310,2012-10-11 10:02:00
6:54 AM,42.1,37.9,85,29.58,10.0,WNW,6.9,-,0.02,,Partly Cloudy,290,2012-10-11 10:54:00
7:54 AM,42.1,37.9,85,29.60,10.0,WSW,8.1,-,N/A,,Mostly Cloudy,250,2012-10-11 11:54:00
8:54 AM,42.1,37.0,82,29.64,10.0,West,16.1,24.2,N/A,,Mostly Cloudy,260,2012-10-11 12:54:00
9:54 AM,42.1,37.0,82,29.67,10.0,West,11.5,-,0.00,,Mostly Cloudy,260,2012-10-11 13:54:00
10:03 AM,42.8,37.4,81,29.65,10.0,WSW,13.8,26.5,N/A,,Overcast,250,2012-10-11 14:03:00
10:35 AM,37.4,32.0,81,29.68,2.5,WNW,17.3,34.5,0.00,Rain,Rain,300,2012-10-11 14:35:00
10:44 AM,37.4,33.8,87,29.68,5.0,WNW,15.0,32.2,0.00,Rain,Light Rain,300,2012-10-11 14:44:00
10:54 AM,39.0,34.0,82,29.70,10.0,West,11.5,29.9,0.00,Rain,Light Rain,280,2012-10-11 14:54:00
11:06 AM,39.2,35.6,87,29.69,10.0,West,9.2,18.4,N/A,,Overcast,270,2012-10-11 15:06:00
11:54 AM,43.0,35.1,74,29.73,10.0,West,16.1,21.9,N/A,,Overcast,260,2012-10-11 15:54:00
12:54 PM,45.0,33.1,63,29.74,10.0,West,15.0,29.9,N/A,,Mostly Cloudy,280,2012-10-11 16:54:00
1:54 PM,42.1,33.1,70,29.77,10.0,West,11.5,26.5,0.00,,Mostly Cloudy,280,2012-10-11 17:54:00
2:54 PM,41.0,32.0,70,29.81,10.0,West,12.7,21.9,0.00,,Overcast,260,2012-10-11 18:54:00
3:54 PM,45.0,28.0,52,29.84,10.0,West,15.0,27.6,N/A,,Mostly Cloudy,260,2012-10-11 19:54:00
4:54 PM,44.1,26.1,49,29.88,10.0,West,10.4,23.0,N/A,,Overcast,270,2012-10-11 20:54:00
6:54 PM,39.0,26.1,60,29.94,10.0,WSW,8.1,-,N/A,,Clear,250,2012-10-11 22:54:00
7:54 PM,37.0,26.1,65,29.96,10.0,SW,3.5,-,N/A,,Clear,220,2012-10-11 23:54:00
8:54 PM,35.1,26.1,70,29.96,10.0,SSW,5.8,-,N/A,,Clear,210,2012-10-12 00:54:00
9:54 PM,35.1,25.0,67,29.97,10.0,SSW,3.5,-,N/A,,Clear,200,2012-10-12 01:54:00
10:54 PM,35.1,26.1,70,29.97,10.0,SW,6.9,-,N/A,,Clear,220,2012-10-12 02:54:00
11:54 PM,35.1,26.1,70,29.96,10.0,SW,4.6,-,N/A,,Clear,220,2012-10-12 03:54:00